Retour au catalogue

STARLINK-11461

ActifCommunicationsVLEO
NORAD 62421·PAYLOAD·🇺🇸 United States

Lancé Dec 23, 2024 depuis Cape Canaveral Space Force Station

Loading…

Prochains Passages (prochaines 24 heures)

TLE

FraisSource: CelesTrak SupGP

Époque: Sep 15, 2026, 02:22 UTC

1 62421C 24249N   26258.09909722  .00087202  00000+0  67698-3 0  2582
2 62421  43.0003 106.0406 0001734 277.0580 271.0455 15.70806060    16

Suivez STARLINK-11461 en temps réel avec AllMySat

Download on the App Store